TimeCST,TemperatureF,Dew PointF,Humidity,Sea Level PressureIn,VisibilityMPH,Wind Direction,Wind SpeedMPH,Gust SpeedMPH,PrecipitationIn,Events,Conditions,WindDirDegrees,DateUTC
12:56 AM,39.0,30.9,73,30.27,10.0,Calm,Calm,-,N/A,,Clear,0,2013-03-07 06:56:00
1:56 AM,37.0,30.9,79,30.27,10.0,NNW,3.5,-,N/A,,Clear,340,2013-03-07 07:56:00
2:56 AM,36.0,30.0,79,30.26,10.0,North,3.5,-,N/A,,Clear,10,2013-03-07 08:56:00
3:56 AM,36.0,30.0,79,30.25,10.0,North,5.8,-,N/A,,Clear,10,2013-03-07 09:56:00
4:56 AM,36.0,30.0,79,30.27,10.0,NNE,3.5,-,N/A,,Clear,20,2013-03-07 10:56:00
5:56 AM,39.0,30.0,70,30.27,10.0,NNE,10.4,-,N/A,,Mostly Cloudy,30,2013-03-07 11:56:00
6:56 AM,39.9,28.9,65,30.30,10.0,North,6.9,-,N/A,,Mostly Cloudy,10,2013-03-07 12:56:00
7:56 AM,44.1,28.9,55,30.34,10.0,North,5.8,-,N/A,,Mostly Cloudy,10,2013-03-07 13:56:00
8:56 AM,46.9,28.0,48,30.35,10.0,NNE,10.4,-,N/A,,Scattered Clouds,30,2013-03-07 14:56:00
9:56 AM,51.1,28.9,43,30.33,10.0,NE,8.1,-,N/A,,Partly Cloudy,50,2013-03-07 15:56:00
10:56 AM,54.0,30.0,40,30.33,10.0,Variable,3.5,-,N/A,,Partly Cloudy,0,2013-03-07 16:56:00
11:56 AM,55.0,34.0,45,30.31,10.0,South,9.2,-,N/A,,Scattered Clouds,170,2013-03-07 17:56:00
12:56 PM,55.4,35.6,47,30.27,10.0,South,8.1,-,N/A,,Scattered Clouds,170,2013-03-07 18:56:00
1:56 PM,55.4,37.4,51,30.25,10.0,South,6.9,-,N/A,,Scattered Clouds,190,2013-03-07 19:56:00
2:56 PM,55.9,37.9,51,30.24,10.0,SW,11.5,-,N/A,,Mostly Cloudy,220,2013-03-07 20:56:00
3:56 PM,55.0,42.1,62,30.23,10.0,SW,9.2,-,N/A,,Mostly Cloudy,220,2013-03-07 21:56:00
4:56 PM,55.0,43.0,64,30.24,10.0,SW,8.1,-,N/A,,Mostly Cloudy,230,2013-03-07 22:56:00
5:56 PM,53.1,44.1,71,30.24,10.0,WSW,3.5,-,N/A,,Mostly Cloudy,240,2013-03-07 23:56:00
6:56 PM,51.1,43.0,74,30.25,10.0,Calm,Calm,-,N/A,,Mostly Cloudy,0,2013-03-08 00:56:00
7:56 PM,48.0,39.9,74,30.25,10.0,Calm,Calm,-,N/A,,Partly Cloudy,0,2013-03-08 01:56:00
8:56 PM,46.0,41.0,83,30.26,10.0,WNW,3.5,-,N/A,,Partly Cloudy,300,2013-03-08 02:56:00
9:56 PM,39.9,39.0,97,30.26,10.0,Calm,Calm,-,N/A,,Clear,0,2013-03-08 03:56:00
10:56 PM,43.0,39.9,89,30.26,10.0,NW,4.6,-,0.00,,Clear,310,2013-03-08 04:56:00
11:56 PM,43.0,41.0,93,30.25,9.0,Calm,Calm,-,N/A,,Clear,0,2013-03-08 05:56:00